Language: 


Des rapports , des résumés tant et plus, au choix de chacun....


Données statistiques de la station
Quotidien Rapport Décembre 7, 2017 Unités:  Anglais    Métrique   les deux
« Précédent Jour
Suivant Jour »
Quotidien Hebdomadaire Mensuel Annuel Actuel
  Haut: Bas: Moyen:
Température: 46.9 °F 37.6 °F 41.7 °F
Pt de rosée: 48.2 °F 37.4 °F 40.5 °F
Humidité: 98 % 81 % 94 %
Vitesse du vent: 17.9 mph 0 mph 8.8 mph
Rafales: 23.9 mph - -
Vent:- - SW
Pression: 30.2 in 0 in -
Précipitation: 0.18 in    
Historical Graphs
 
 
Données statistiques pour Décembre 7, 2017
Heure Température Point de rosée Pression Vent Vitesse du vent Refales Humidité Pluie (taux horaire)
00:00 43.9 °F 39.2 °F 30.2 in South 8.1 mph 10.7 mph 83 % 0 in
00:05 43.9 °F 39.2 °F 30.2 in South 6.3 mph 10.3 mph 83 % 0 in
00:10 43.9 °F 39.2 °F 30.2 in South 9.8 mph 10.1 mph 83 % 0 in
00:15 43.7 °F 39.2 °F 30.2 in SSW 6 mph 12.5 mph 82 % 0 in
00:20 43.7 °F 39.2 °F 30.2 in SSW 5.8 mph 12.5 mph 82 % 0 in
00:25 43.7 °F 39.2 °F 30.2 in SSW 7.6 mph 11.9 mph 82 % 0 in
00:30 43.7 °F 39.2 °F 30.2 in SSW 8.5 mph 8.5 mph 81 % 0 in
00:35 43.5 °F 37.4 °F 30.2 in SSW 13 mph 13 mph 81 % 0 in
00:40 43.5 °F 37.4 °F 30.2 in SW 11.2 mph 13 mph 81 % 0 in
00:45 43.3 °F 37.4 °F 30.2 in SSW 9.8 mph 13 mph 81 % 0 in
00:50 43 °F 37.4 °F 30.2 in SSW 7.4 mph 11.2 mph 81 % 0 in
00:55 42.8 °F 37.4 °F 30.2 in SSW 10.1 mph 10.1 mph 81 % 0 in
01:00 42.8 °F 37.4 °F 30.2 in SSW 7.8 mph 10.5 mph 81 % 0 in
01:05 42.8 °F 37.4 °F 30.2 in WSW 6.9 mph 11.2 mph 81 % 0 in
01:11 42.6 °F 37.4 °F 30.2 in SSW 7.4 mph 11.2 mph 82 % 0 in
01:16 42.6 °F 37.4 °F 30.2 in South 6.5 mph 9.8 mph 82 % 0 in
01:21 42.6 °F 37.4 °F 30.2 in SSW 6.3 mph 12.5 mph 82 % 0 in
01:26 42.4 °F 37.4 °F 30.2 in SW 9.2 mph 12.5 mph 83 % 0 in
01:31 42.4 °F 37.4 °F 30.2 in SSW 13 mph 13.2 mph 83 % 0 in
01:36 42.4 °F 37.4 °F 30.2 in SSW 8.5 mph 13.2 mph 83 % 0 in
01:41 42.3 °F 37.4 °F 30.2 in SSW 14.8 mph 14.8 mph 84 % 0 in
01:46 42.3 °F 37.4 °F 30.2 in SSW 10.7 mph 14.8 mph 84 % 0 in
01:51 42.3 °F 37.4 °F 30.2 in SSW 8.7 mph 14.8 mph 84 % 0 in
01:56 42.3 °F 37.4 °F 30.2 in SSW 7.8 mph 12.5 mph 84 % 0 in
02:01 42.3 °F 37.4 °F 30.2 in SSW 10.1 mph 12.5 mph 83 % 0 in
02:06 42.3 °F 37.4 °F 30.2 in SSW 7.6 mph 12.3 mph 83 % 0 in
02:11 42.3 °F 37.4 °F 30.2 in SSW 12.5 mph 12.5 mph 83 % 0 in
02:16 42.3 °F 37.4 °F 30.2 in SSW 12.3 mph 12.5 mph 83 % 0 in
02:21 42.1 °F 37.4 °F 30.2 in South 8.5 mph 12.5 mph 84 % 0 in
02:26 41.9 °F 39.2 °F 30.2 in SSW 7.8 mph 12.3 mph 85 % 0 in
02:31 41.5 °F 37.4 °F 30.2 in South 10.5 mph 13.4 mph 86 % 0 in
02:36 41.2 °F 37.4 °F 30.2 in South 13 mph 13.4 mph 87 % 0 in
02:41 40.8 °F 37.4 °F 30.2 in SSW 7.4 mph 13.2 mph 88 % 0 in
02:47 40.6 °F 37.4 °F 30.2 in SSW 10.3 mph 13.2 mph 88 % 0 in
02:52 40.5 °F 37.4 °F 30.2 in South 6 mph 10.3 mph 88 % 0 in
02:57 40.3 °F 37.4 °F 30.2 in SSW 10.7 mph 10.7 mph 89 % 0 in
03:02 40.1 °F 37.4 °F 0 in SSW 12.3 mph 12.3 mph 89 % 0 in
03:07 39.9 °F 37.4 °F 30.2 in South 8.7 mph 12.3 mph 90 % 0 in
03:12 39.9 °F 37.4 °F 30.2 in SSW 10.5 mph 15.4 mph 90 % 0 in
03:17 39.7 °F 37.4 °F 30.2 in SSW 12.3 mph 15.4 mph 91 % 0 in
03:22 39.4 °F 37.4 °F 30.2 in South 9.2 mph 13.2 mph 91 % 0 in
03:27 39.4 °F 37.4 °F 30.1 in SSW 8.9 mph 13.2 mph 91 % 0 in
03:32 39.2 °F 37.4 °F 30.1 in SSW 13.9 mph 13.9 mph 92 % 0 in
03:37 39 °F 37.4 °F 30.1 in SSW 11.9 mph 13.9 mph 93 % 0 in
03:42 39 °F 37.4 °F 30.1 in SSW 10.3 mph 13.9 mph 93 % 0 in
03:47 38.8 °F 37.4 °F 30.1 in SSW 7.8 mph 11.9 mph 93 % 0 in
03:52 38.8 °F 37.4 °F 30.1 in South 7.8 mph 12.8 mph 94 % 0 in
03:57 38.7 °F 37.4 °F 30.1 in South 4.3 mph 12.8 mph 94 % 0 in
04:02 38.7 °F 37.4 °F 30.1 in SSW 15.4 mph 15.4 mph 94 % 0 in
04:07 38.7 °F 37.4 °F 30.1 in SSW 15.4 mph 15.4 mph 94 % 0 in
04:13 38.5 °F 37.4 °F 30.1 in SSW 15.4 mph 15.4 mph 94 % 0 in
04:18 38.5 °F 37.4 °F 30.1 in South 8.1 mph 15.4 mph 94 % 0 in
04:23 38.3 °F 37.4 °F 30.1 in South 8.1 mph 15.4 mph 95 % 0 in
04:24 38.3 °F 37.4 °F 30.1 in South 8.1 mph 15.4 mph 95 % 0 in
04:25 38.3 °F 37.4 °F 30.1 in South 8.1 mph 8.1 mph 95 % 0 in
04:31 38.3 °F 37.4 °F 30.1 in SSW 8.1 mph 15.4 mph 95 % 0 in
04:36 38.1 °F 37.4 °F 30.1 in SSW 11.9 mph 15.4 mph 95 % 0 in
04:41 38.1 °F 37.4 °F 30.1 in SSW 8.1 mph 14.8 mph 95 % 0 in
04:46 37.9 °F 37.4 °F 30.1 in South 10.5 mph 14.8 mph 95 % 0 in
04:51 37.9 °F 37.4 °F 30.1 in South 7.4 mph 12.5 mph 95 % 0 in
04:56 37.8 °F 37.4 °F 30.1 in South 10.1 mph 11.9 mph 95 % 0 in
05:01 37.6 °F 37.4 °F 30.1 in SSE 8.1 mph 15.2 mph 95 % 0 in
05:06 37.6 °F 37.4 °F 30.1 in South 7.6 mph 15.2 mph 95 % 0 in
05:11 37.6 °F 37.4 °F 30.1 in SSW 8.7 mph 12.1 mph 95 % 0 in
05:16 37.6 °F 37.4 °F 30.1 in SSW 7.8 mph 11 mph 96 % 0 in
05:21 37.6 °F 37.4 °F 30.1 in South 7.6 mph 13.9 mph 96 % 0 in
05:26 37.6 °F 37.4 °F 30.1 in SSW 6.3 mph 13.9 mph 96 % 0 in
05:31 37.8 °F 37.4 °F 30.1 in SSW 8.7 mph 10.7 mph 96 % 0 in
05:36 37.9 °F 37.4 °F 30.1 in WSW 11 mph 16.8 mph 97 % 0 in
05:41 38.1 °F 37.4 °F 30.1 in South 10.5 mph 16.8 mph 97 % 0 in
05:46 38.1 °F 37.4 °F 30.1 in South 10.5 mph 12.3 mph 97 % 0 in
05:51 38.5 °F 37.4 °F 30.1 in SSW 6 mph 11 mph 97 % 0 in
05:56 38.5 °F 37.4 °F 30 in SSW 10.5 mph 15.4 mph 97 % 0 in
06:01 38.7 °F 37.4 °F 30 in SSW 11 mph 16.6 mph 96 % 0 in
06:06 38.7 °F 37.4 °F 30 in SSW 13.2 mph 16.6 mph 96 % 0 in
06:11 38.8 °F 37.4 °F 30 in South 8.7 mph 13.2 mph 96 % 0 in
06:16 38.8 °F 37.4 °F 30 in South 8.7 mph 13.2 mph 96 % 0 in
06:21 39 °F 39.2 °F 30 in SSW 7.6 mph 8.7 mph 96 % 0 in
06:26 39.2 °F 37.4 °F 30 in SSW 8.1 mph 8.7 mph 95 % 0 in
06:32 39.2 °F 37.4 °F 30 in SSW 7.4 mph 14.8 mph 95 % 0 in
06:37 39.4 °F 37.4 °F 30 in SSW 8.9 mph 14.8 mph 94 % 0 in
06:42 39.4 °F 37.4 °F 30 in SW 12.5 mph 12.5 mph 94 % 0 in
06:47 39.6 °F 37.4 °F 30 in SSE 5.8 mph 12.5 mph 93 % 0 in
06:52 39.7 °F 37.4 °F 30 in South 8.5 mph 15.7 mph 93 % 0 in
06:57 39.7 °F 37.4 °F 30 in South 6 mph 15.7 mph 93 % 0 in
07:02 39.7 °F 37.4 °F 30 in SSW 8.1 mph 12.3 mph 92 % 0 in
07:07 39.7 °F 37.4 °F 30 in SSW 11.9 mph 11.9 mph 92 % 0 in
07:12 39.7 °F 37.4 °F 30 in SSW 11.9 mph 11.9 mph 92 % 0 in
07:17 39.7 °F 37.4 °F 30 in SSW 11.9 mph 11.9 mph 92 % 0 in
07:22 39.9 °F 37.4 °F 30 in SSW 11.2 mph 11.9 mph 92 % 0 in
07:27 39.9 °F 37.4 °F 30 in SSW 11.2 mph 11.9 mph 91 % 0 in
07:32 39.9 °F 37.4 °F 30 in SSW 10.3 mph 14.5 mph 91 % 0 in
07:37 39.9 °F 37.4 °F 30 in SSW 11.4 mph 14.5 mph 91 % 0 in
07:41 39.7 °F 37.4 °F 30 in SSW 11.4 mph 11.4 mph 91 % 0 in
07:46 39.7 °F 37.4 °F 30 in SSW 11.4 mph 11.4 mph 91 % 0 in
07:51 39.7 °F 37.4 °F 30 in South 12.8 mph 12.8 mph 91 % 0 in
07:56 39.7 °F 37.4 °F 29.9 in South 7.8 mph 12.8 mph 91 % 0 in
08:01 39.7 °F 37.4 °F 29.9 in SSW 6.9 mph 12.8 mph 91 % 0 in
08:06 39.7 °F 37.4 °F 29.9 in SSW 6.3 mph 7.8 mph 91 % 0 in
08:11 39.7 °F 37.4 °F 29.9 in SSW 7.8 mph 7.8 mph 92 % 0 in
08:16 39.7 °F 37.4 °F 29.9 in SSW 7.8 mph 7.8 mph 92 % 0 in
08:21 39.7 °F 37.4 °F 29.9 in SSW 10.1 mph 10.1 mph 93 % 0 in
08:26 39.7 °F 37.4 °F 30 in SSW 10.1 mph 10.1 mph 93 % 0 in
08:31 39.7 °F 37.4 °F 30 in SSW 10.1 mph 10.1 mph 93 % 0 in
08:36 39.7 °F 37.4 °F 30 in SW 10.7 mph 13 mph 93 % 0 in
08:42 39.7 °F 37.4 °F 29.9 in South 10.1 mph 16.1 mph 93 % 0 in
08:47 39.7 °F 37.4 °F 29.9 in WSW 5.6 mph 16.1 mph 93 % 0 in
08:52 39.7 °F 37.4 °F 29.9 in SSW 9.8 mph 17.7 mph 93 % 0 in
08:53 39.7 °F 37.4 °F 29.9 in SSW 14.5 mph 17.7 mph 93 % 0 in
08:58 39.7 °F 37.4 °F 30 in SW 13 mph 17.7 mph 93 % 0 in
09:03 39.7 °F 37.4 °F 30 in SSW 13.9 mph 17.7 mph 93 % 0 in
09:08 39.7 °F 37.4 °F 30 in SSW 6.5 mph 17.7 mph 93 % 0 in
09:13 39.7 °F 37.4 °F 30 in SSW 9.8 mph 17.7 mph 93 % 0 in
09:18 39.7 °F 37.4 °F 30 in SSW 13 mph 17.7 mph 93 % 0 in
09:24 39.7 °F 37.4 °F 30 in South 10.7 mph 17.4 mph 94 % 0 in
09:29 39.7 °F 37.4 °F 30 in SSW 13.9 mph 14.5 mph 94 % 0 in
09:34 39.7 °F 37.4 °F 30 in West 10.7 mph 16.6 mph 94 % 0 in
09:39 39.7 °F 39.2 °F 30 in SW 8.7 mph 17.7 mph 95 % 0 in
09:44 39.9 °F 39.2 °F 30 in South 12.8 mph 17.7 mph 95 % 0 in
09:49 39.9 °F 39.2 °F 30 in SSW 12.8 mph 17.4 mph 95 % 0 in
09:54 39.9 °F 37.4 °F 30 in SSW 10.1 mph 17.2 mph 94 % 0 in
09:59 39.9 °F 39.2 °F 29.9 in SSW 12.1 mph 14.3 mph 95 % 0 in
10:04 40.1 °F 39.2 °F 29.9 in SSW 8.1 mph 15.2 mph 95 % 0 in
10:09 40.3 °F 39.2 °F 29.9 in SSW 9.8 mph 15.2 mph 95 % 0 in
10:14 40.3 °F 39.2 °F 29.9 in SSW 8.7 mph 15.2 mph 95 % 0 in
10:19 40.3 °F 39.2 °F 29.9 in SSW 12.8 mph 13.9 mph 95 % 0 in
10:24 40.5 °F 39.2 °F 29.9 in South 14.1 mph 17.7 mph 95 % 0 in
10:29 40.5 °F 39.2 °F 29.9 in South 7.6 mph 18.8 mph 95 % 0 in
10:34 40.6 °F 39.2 °F 29.9 in SSW 10.7 mph 18.8 mph 95 % 0 in
10:39 40.6 °F 39.2 °F 29.9 in SSW 15.9 mph 19 mph 95 % 0 in
10:44 40.8 °F 39.2 °F 29.9 in SW 15.4 mph 21.9 mph 95 % 0 in
10:49 41 °F 41 °F 29.9 in SSW 12.5 mph 21.9 mph 95 % 0 in
10:54 41 °F 41 °F 29.9 in SW 13.6 mph 17 mph 95 % 0 in
10:59 41.2 °F 39.2 °F 29.9 in SW 15.4 mph 19.5 mph 94 % 0 in
11:04 41.2 °F 39.2 °F 29.9 in SW 13.2 mph 19.5 mph 94 % 0 in
11:09 41.4 °F 39.2 °F 29.9 in SSW 10.1 mph 16.3 mph 94 % 0 in
11:14 41.5 °F 41 °F 29.9 in South 9.6 mph 16.8 mph 94 % 0 in
11:19 41.4 °F 41 °F 29.9 in SSW 10.3 mph 16.8 mph 95 % 0 in
11:24 41.4 °F 41 °F 29.9 in SW 12.8 mph 15.4 mph 96 % 0.01 in
11:29 41.4 °F 41 °F 29.9 in SSW 13 mph 17.9 mph 96 % 0.01 in
11:35 41.2 °F 41 °F 29.9 in WSW 13.6 mph 17.9 mph 97 % 0.01 in
11:40 41.2 °F 41 °F 29.9 in SSW 5.6 mph 17.4 mph 98 % 0.02 in
11:45 41.4 °F 41 °F 29.9 in South 8.1 mph 17.4 mph 98 % 0.03 in
11:50 41.4 °F 41 °F 29.9 in South 11 mph 15.7 mph 98 % 0.03 in
11:55 41.4 °F 41 °F 29.9 in SSW 12.5 mph 15.7 mph 98 % 0.03 in
12:00 41.5 °F 42.8 °F 29.9 in SSW 9.6 mph 15.4 mph 98 % 0.03 in
12:05 41.5 °F 42.8 °F 29.9 in SSW 10.5 mph 15.4 mph 98 % 0.03 in
12:10 41.5 °F 42.8 °F 29.9 in SSW 10.5 mph 23.9 mph 98 % 0.03 in
12:15 41.7 °F 42.8 °F 29.9 in SW 11 mph 23.9 mph 98 % 0.03 in
12:20 41.7 °F 42.8 °F 29.9 in SSW 17.9 mph 17.9 mph 98 % 0.02 in
12:25 41.7 °F 42.8 °F 29.9 in SW 8.5 mph 17.9 mph 98 % 0.02 in
12:30 41.9 °F 42.8 °F 29.9 in South 9.6 mph 17.9 mph 98 % 0.02 in
12:35 41.9 °F 42.8 °F 29.9 in SSW 8.5 mph 15.9 mph 98 % 0.02 in
12:40 42.1 °F 42.8 °F 29.9 in South 8.5 mph 15.9 mph 98 % 0.01 in
12:45 42.1 °F 42.8 °F 29.9 in SSW 15.4 mph 17.4 mph 98 % 0 in
12:50 42.3 °F 42.8 °F 29.9 in South 13.6 mph 17.4 mph 98 % 0 in
12:55 42.3 °F 42.8 °F 29.9 in SSW 17.2 mph 17.2 mph 98 % 0 in
13:00 42.3 °F 42.8 °F 29.9 in SSW 8.5 mph 17.2 mph 98 % 0 in
13:05 42.4 °F 42.8 °F 29.9 in SSW 13 mph 16.8 mph 98 % 0 in
13:10 42.4 °F 42.8 °F 29.9 in SW 9.6 mph 16.8 mph 98 % 0 in
13:15 42.6 °F 42.8 °F 29.8 in SSW 13 mph 16.8 mph 98 % 0 in
13:20 42.6 °F 42.8 °F 29.8 in SW 11.2 mph 16.3 mph 98 % 0 in
13:25 42.8 °F 42.8 °F 29.8 in SW 13 mph 17.2 mph 98 % 0 in
13:30 42.8 °F 42.8 °F 29.8 in SSW 11.9 mph 17.2 mph 98 % 0 in
13:35 43 °F 42.8 °F 29.8 in South 13.2 mph 17.4 mph 98 % 0 in
13:50 43.3 °F 42.8 °F 29.8 in SSW 10.7 mph 19.7 mph 98 % 0 in
14:00 43.5 °F 42.8 °F 29.8 in SW 17.4 mph 17.4 mph 98 % 0 in
14:05 43.7 °F 44.6 °F 29.8 in WSW 14.8 mph 17.4 mph 98 % 0 in
14:10 43.7 °F 44.6 °F 29.8 in WSW 15.4 mph 15.9 mph 98 % 0 in
14:15 43.7 °F 44.6 °F 29.8 in SSW 6.3 mph 17.9 mph 98 % 0 in
14:20 43.9 °F 44.6 °F 29.8 in SW 13 mph 17.9 mph 98 % 0 in
14:25 43.9 °F 44.6 °F 29.8 in SSW 10.7 mph 19.5 mph 98 % 0 in
14:30 44.1 °F 44.6 °F 29.8 in SW 13 mph 19.5 mph 98 % 0 in
14:35 44.1 °F 44.6 °F 29.8 in SW 6.5 mph 15.4 mph 98 % 0 in
14:40 44.1 °F 44.6 °F 29.8 in SSW 11 mph 15.2 mph 98 % 0 in
14:45 44.2 °F 44.6 °F 29.8 in SSW 12.3 mph 15.2 mph 98 % 0 in
14:51 44.2 °F 44.6 °F 29.8 in SW 7.6 mph 14.8 mph 98 % 0 in
14:56 44.4 °F 44.6 °F 29.8 in SSW 11 mph 14.8 mph 98 % 0 in
15:01 44.6 °F 44.6 °F 29.8 in SW 6 mph 15.4 mph 98 % 0 in
15:06 44.8 °F 44.6 °F 29.8 in SSE 7.8 mph 15.4 mph 98 % 0 in
15:16 45 °F 44.6 °F 29.8 in SSW 8.1 mph 15.2 mph 98 % 0 in
15:21 45.1 °F 44.6 °F 29.8 in SSW 8.7 mph 14.3 mph 98 % 0 in
15:26 45.1 °F 44.6 °F 29.7 in SSW 13 mph 22.8 mph 98 % 0 in
15:31 45.1 °F 44.6 °F 29.7 in SSW 12.5 mph 22.8 mph 98 % 0 in
15:36 45.1 °F 44.6 °F 29.7 in SSW 8.5 mph 18.1 mph 98 % 0 in
15:46 45.3 °F 44.6 °F 29.7 in SSW 12.5 mph 17.2 mph 98 % 0 in
15:51 45.3 °F 44.6 °F 29.7 in SW 12.3 mph 19.2 mph 98 % 0.01 in
16:21 45.7 °F 46.4 °F 29.7 in SW 8.5 mph 19 mph 98 % 0.03 in
16:26 45.9 °F 46.4 °F 29.7 in WSW 7.8 mph 17 mph 98 % 0.03 in
16:41 46 °F 46.4 °F 29.7 in SSW 13 mph 17.4 mph 98 % 0.05 in
16:51 46.2 °F 46.4 °F 29.7 in South 9.2 mph 13.4 mph 98 % 0.05 in
16:56 46.2 °F 46.4 °F 29.7 in SW 10.3 mph 12.3 mph 98 % 0.06 in
17:01 46.2 °F 46.4 °F 29.7 in SSW 10.3 mph 19 mph 98 % 0.06 in
17:06 46.2 °F 46.4 °F 29.7 in SW 7.8 mph 19.7 mph 98 % 0.06 in
17:11 46.2 °F 46.4 °F 29.7 in SSW 9.6 mph 19.7 mph 98 % 0.05 in
17:16 46 °F 46.4 °F 29.7 in SW 6.5 mph 13.4 mph 98 % 0.05 in
17:21 46.2 °F 46.4 °F 29.7 in WSW 7.6 mph 15.4 mph 98 % 0.05 in
17:31 46.2 °F 46.4 °F 29.7 in SSW 13.6 mph 14.5 mph 98 % 0.05 in
17:41 46.2 °F 46.4 °F 29.7 in WSW 6.9 mph 12.1 mph 98 % 0.04 in
17:46 46.2 °F 46.4 °F 29.7 in SW 12.3 mph 12.3 mph 98 % 0.05 in
17:51 46.4 °F 46.4 °F 29.7 in WSW 8.7 mph 13 mph 98 % 0.04 in
17:56 46.4 °F 46.4 °F 29.7 in SW 7.2 mph 13 mph 98 % 0.03 in
18:02 46.6 °F 46.4 °F 29.7 in WSW 6 mph 12.8 mph 98 % 0.03 in
18:07 46.6 °F 46.4 °F 29.7 in WSW 10.1 mph 12.8 mph 98 % 0.01 in
18:12 46.8 °F 46.4 °F 29.7 in WSW 7.8 mph 13 mph 98 % 0.01 in
18:17 46.8 °F 46.4 °F 29.7 in WSW 9.8 mph 13 mph 98 % 0.01 in
18:22 46.9 °F 48.2 °F 29.7 in WSW 5.4 mph 13 mph 98 % 0.01 in
18:27 46.9 °F 48.2 °F 29.7 in NNW 3.1 mph 11.9 mph 98 % 0.01 in
18:32 46.9 °F 48.2 °F 29.7 in West 6 mph 7.8 mph 98 % 0.02 in
18:37 46.9 °F 48.2 °F 29.7 in NNW 5.8 mph 10.1 mph 98 % 0.03 in
18:42 46 °F 46.4 °F 29.8 in NNW 8.7 mph 12.5 mph 98 % 0.05 in
18:47 45.5 °F 46.4 °F 29.8 in NW 4.3 mph 12.5 mph 98 % 0.03 in
18:52 45 °F 44.6 °F 29.8 in North 7.6 mph 12.5 mph 98 % 0.03 in
18:57 44.8 °F 44.6 °F 29.8 in North 5.6 mph 10.7 mph 98 % 0.03 in
19:28 44.2 °F 44.6 °F 29.8 in Calm   5.6 mph 98 % 0.03 in
19:38 44.1 °F 44.6 °F 29.8 in WNW 0.9 mph 4 mph 98 % 0.01 in
19:48 44.1 °F 44.6 °F 29.8 in Calm   4 mph 98 % 0.01 in
19:58 43.9 °F 44.6 °F 29.8 in NNW 1.6 mph 7.6 mph 98 % 0.01 in
20:03 43.7 °F 44.6 °F 29.8 in Calm   6.3 mph 98 % 0.01 in
20:08 43.5 °F 42.8 °F 29.8 in West 1.3 mph 6.3 mph 98 % 0 in
20:13 43.3 °F 42.8 °F 29.8 in Calm   5.8 mph 98 % 0 in
20:18 43.3 °F 42.8 °F 29.8 in West 5.4 mph 6.3 mph 98 % 0 in
20:23 43 °F 42.8 °F 29.8 in Calm   6.3 mph 98 % 0 in
20:28 43 °F 42.8 °F 29.8 in Calm   5.8 mph 98 % 0 in
20:38 42.4 °F 42.8 °F 29.8 in Calm   4.3 mph 98 % 0 in
20:43 42.3 °F 42.8 °F 29.8 in WSW 3.8 mph 4.9 mph 98 % 0 in
20:48 41.9 °F 42.8 °F 29.8 in SW 3.4 mph 5.4 mph 98 % 0 in
20:58 41.5 °F 42.8 °F 29.8 in Calm   5.4 mph 98 % 0 in
21:03 41.5 °F 42.8 °F 29.8 in WSW 3.1 mph 5.4 mph 98 % 0 in
21:18 41.7 °F 42.8 °F 29.8 in WNW 3.8 mph 6.9 mph 98 % 0 in
21:28 41.9 °F 42.8 °F 29.8 in West 3.1 mph 7.2 mph 98 % 0 in
21:33 41.9 °F 42.8 °F 29.8 in Calm   8.1 mph 98 % 0 in
21:38 42.1 °F 42.8 °F 29.8 in West 6 mph 8.1 mph 98 % 0 in
21:43 42.1 °F 42.8 °F 29.8 in West 4.9 mph 7.6 mph 98 % 0 in
21:48 42.1 °F 42.8 °F 29.8 in SW 2.9 mph 6.5 mph 98 % 0 in
21:53 42.1 °F 42.8 °F 29.8 in West 3.8 mph 7.4 mph 98 % 0 in
21:58 42.1 °F 42.8 °F 29.8 in West 0.9 mph 8.5 mph 98 % 0 in
22:08 42.1 °F 42.8 °F 29.8 in West 2.9 mph 7.4 mph 98 % 0 in
22:14 42.1 °F 42.8 °F 29.8 in WSW 3.1 mph 7.4 mph 98 % 0 in
22:22 41.7 °F 42.8 °F 29.8 in WSW 4.7 mph 7.2 mph 98 % 0 in
22:27 41.5 °F 42.8 °F 29.8 in WSW 5.6 mph 6.9 mph 98 % 0 in
22:32 41.2 °F 41 °F 29.8 in West 7.2 mph 7.2 mph 98 % 0 in
22:37 41 °F 41 °F 29.8 in West 2.5 mph 7.2 mph 98 % 0 in
22:42 40.8 °F 41 °F 29.8 in West 4 mph 7.2 mph 98 % 0 in
22:47 40.5 °F 41 °F 29.8 in West 3.4 mph 5.6 mph 98 % 0 in
22:52 40.5 °F 41 °F 29.8 in West 3.1 mph 4.9 mph 98 % 0 in
22:57 40.3 °F 41 °F 29.8 in WSW 5.6 mph 6.9 mph 98 % 0 in
23:02 40.1 °F 41 °F 29.8 in West 3.8 mph 6.9 mph 98 % 0 in
23:12 39.9 °F 39.2 °F 29.8 in WSW 3.6 mph 8.5 mph 98 % 0 in
23:17 39.9 °F 39.2 °F 29.8 in West 5.4 mph 7.6 mph 98 % 0 in
23:22 39.9 °F 39.2 °F 29.8 in West 4 mph 8.5 mph 98 % 0 in
23:32 40.1 °F 41 °F 29.9 in West 2.7 mph 8.7 mph 98 % 0 in
23:37 40.3 °F 41 °F 29.9 in SSW 5.8 mph 6.3 mph 98 % 0 in
23:42 40.1 °F 41 °F 29.9 in West 4.3 mph 5.8 mph 98 % 0 in
23:52 40.1 °F 41 °F 29.9 in WNW 6.5 mph 6.5 mph 98 % 0 in
23:57 39.9 °F 39.2 °F 29.9 in Calm   6.5 mph 98 % 0 in
Le Gheer Warneton
Courtoisie de Weather Underground - 2 mb

Mise a jour : 18/12/2017 04:13:12
Généré par Cumulus 1.9.4 (1099)